Beatrice, NE

4:34 AM CDT on August 18, 2017 (GMT -0500)
Beatrice Municipal

Weather History for KBIE - February, 2013

Change the Weather History Date:

Wednesday, February 13, 2013

  Actual Average Record
Temperature  
Mean Temperature 40 °F -  
Max Temperature 55 °F 42 °F 69 °F (1997)
Min Temperature 24 °F 19 °F -8 °F (1955)
Degree Days  
Heating Degree Days 26    
Moisture  
Dew Point 22 °F    
Average Humidity 57    
Maximum Humidity 81    
Minimum Humidity 23    
Precipitation  
Precipitation 0.00 in - - ()
Sea Level Pressure  
Sea Level Pressure 29.84 in    
Wind  
Wind Speed 6 mph (West)    
Max Wind Speed 15 mph    
Max Gust Speed 21 mph    
Visibility 10 miles    
Events      
Averages and records for this station are not official NWS values.
T = Trace of Precipitation, MM = Missing Value Source: NWS Daily Summary

Daily Weather History Graph

Daily Weather History Graph

Search for Another Location

Airport or City:

Trip Planner

Search our weather history database for the weather conditions in past years. The results will help you decide how hot, cold, wet, or windy it might be!

Date:

Astronomy

Feb. 13, 2013 Rise Set
Actual Time 7:22 AM CST 6:00 PM CST
Civil Twilight 6:54 AM CST 6:28 PM CST
Nautical Twilight 6:22 AM CST 7:00 PM CST
Astronomical Twilight 5:51 AM CST 7:32 PM CST
Moon 8:51 AM CST (2/13) 10:05 PM CST (2/13)
Length of Visible Light 11h 33m
Length of Day
10h 38m
Waxing Crescent, 14% of the Moon is Illuminated
Feb 13
Waxing Crescent
Feb 17
First Quarter
Feb 25
Full
Mar 4
Last Quarter
Mar 11
New

Hourly Weather History & Observations

Time (CST) Temp. Windchill Dew Point Humidity Pressure Visibility Wind Dir Wind Speed Gust Speed Precip Events Conditions
12:15 AM 25.7 °F 21.5 °F 18.3 °F 74% 29.93 in 10.0 mi West 3.5 mph - N/A   Clear
12:35 AM 27.5 °F 23.6 °F 20.5 °F 75% 29.93 in 10.0 mi West 3.5 mph - N/A   Clear
12:55 AM 27.0 °F - 20.3 °F 76% 29.93 in 10.0 mi Calm Calm - N/A   Clear
1:15 AM 27.0 °F - 20.5 °F 77% 29.92 in 10.0 mi Calm Calm - N/A   Clear
1:35 AM 27.3 °F - 20.8 °F 77% 29.92 in 10.0 mi Calm Calm - N/A   Clear
1:55 AM 25.9 °F 21.7 °F 20.1 °F 79% 29.92 in 10.0 mi West 3.5 mph - N/A   Clear
2:15 AM 26.1 °F - 20.7 °F 80% 29.92 in 10.0 mi Calm Calm - N/A   Clear
2:35 AM 26.8 °F 20.2 °F 20.5 °F 77% 29.92 in 10.0 mi West 5.8 mph - N/A   Clear
2:55 AM 27.9 °F 22.6 °F 21.2 °F 76% 29.92 in 10.0 mi West 4.6 mph - N/A   Clear
3:15 AM 27.9 °F 21.5 °F 21.0 °F 75% 29.91 in 10.0 mi West 5.8 mph - N/A   Clear
3:35 AM 27.5 °F 22.2 °F 21.0 °F 77% 29.90 in 10.0 mi West 4.6 mph - N/A   Clear
3:55 AM 27.5 °F 21.1 °F 21.2 °F 77% 29.90 in 10.0 mi West 5.8 mph - N/A   Clear
4:15 AM 27.1 °F 21.8 °F 21.0 °F 78% 29.89 in 10.0 mi West 4.6 mph - N/A   Clear
4:35 AM 27.3 °F 22.0 °F 20.5 °F 75% 29.89 in 10.0 mi West 4.6 mph - N/A   Clear
4:55 AM 26.4 °F 18.9 °F 20.5 °F 78% 29.89 in 10.0 mi West 6.9 mph - N/A   Clear
5:15 AM 26.6 °F 19.1 °F 20.7 °F 78% 29.89 in 10.0 mi West 6.9 mph - N/A   Clear
5:35 AM 27.1 °F 19.7 °F 20.5 °F 76% 29.88 in 10.0 mi West 6.9 mph - N/A   Clear
5:55 AM 24.8 °F 19.1 °F 19.4 °F 80% 29.88 in 10.0 mi West 4.6 mph - N/A   Clear
6:15 AM 26.1 °F 20.5 °F 19.9 °F 78% 29.88 in 10.0 mi West 4.6 mph - N/A   Clear
6:35 AM 26.1 °F 19.4 °F 19.9 °F 78% 29.87 in 10.0 mi West 5.8 mph - N/A   Clear
6:55 AM 25.0 °F 20.7 °F 19.2 °F 79% 29.88 in 10.0 mi West 3.5 mph - N/A   Clear
7:15 AM 26.4 °F 18.9 °F 20.7 °F 79% 29.88 in 10.0 mi West 6.9 mph - N/A   Clear
7:35 AM 26.2 °F 17.1 °F 21.0 °F 81% 29.89 in 10.0 mi West 9.2 mph - N/A   Clear
7:55 AM 27.1 °F 19.7 °F 21.7 °F 80% 29.88 in 10.0 mi West 6.9 mph - N/A   Clear
8:15 AM 28.2 °F 22.0 °F 22.5 °F 79% 29.88 in 10.0 mi West 5.8 mph - N/A   Clear
8:35 AM 30.2 °F 23.4 °F 23.9 °F 77% 29.88 in 10.0 mi West 6.9 mph - N/A   Clear
8:55 AM 31.1 °F 24.5 °F 24.8 °F 77% 29.88 in 10.0 mi West 6.9 mph - N/A   Clear
9:15 AM 32.5 °F 27.1 °F 26.2 °F 78% 29.88 in 10.0 mi West 5.8 mph - N/A   Clear
9:35 AM 34.0 °F 29.8 °F 26.2 °F 73% 29.88 in 10.0 mi West 4.6 mph - N/A   Clear
9:55 AM 34.7 °F 29.6 °F 26.2 °F 71% 29.88 in 10.0 mi West 5.8 mph - N/A   Clear
10:15 AM 36.5 °F 31.0 °F 27.0 °F 68% 29.88 in 10.0 mi WSW 6.9 mph - N/A   Clear
10:35 AM 38.1 °F 35.7 °F 26.6 °F 63% 29.87 in 10.0 mi WSW 3.5 mph - N/A   Clear
10:55 AM 39.4 °F 35.2 °F 25.3 °F 57% 29.87 in 10.0 mi West 5.8 mph - N/A   Clear
11:15 AM 41.2 °F 38.2 °F 25.5 °F 54% 29.87 in 10.0 mi West 4.6 mph - N/A   Clear
11:35 AM 43.5 °F 38.3 °F 25.3 °F 49% 29.87 in 10.0 mi West 9.2 mph - N/A   Clear
11:55 AM 44.6 °F 40.2 °F 25.0 °F 46% 29.86 in 10.0 mi West 8.1 mph - N/A   Clear
12:15 PM 46.9 °F - 25.3 °F 43% 29.85 in 10.0 mi West 9.2 mph - N/A   Clear
12:35 PM 47.7 °F - 24.8 °F 41% 29.84 in 10.0 mi WSW 8.1 mph - N/A   Clear
12:55 PM 48.7 °F - 24.3 °F 38% 29.83 in 10.0 mi SW 9.2 mph - N/A   Clear
1:15 PM 50.4 °F - 22.6 °F 34% 29.82 in 10.0 mi WSW 9.2 mph - N/A   Clear
1:35 PM 51.8 °F - 21.2 °F 30% 29.81 in 10.0 mi West 11.5 mph - N/A   Clear
1:55 PM 53.1 °F - 20.7 °F 28% 29.80 in 10.0 mi West 11.5 mph - N/A   Clear
2:15 PM 54.1 °F - 19.8 °F 26% 29.79 in 10.0 mi West 11.5 mph - N/A   Clear
2:35 PM 54.7 °F - 19.8 °F 26% 29.79 in 10.0 mi West 15.0 mph - N/A   Clear
2:55 PM 54.5 °F - 18.9 °F 25% 29.78 in 10.0 mi West 15.0 mph - N/A   Clear
3:15 PM 54.7 °F - 17.6 °F 23% 29.78 in 10.0 mi West 13.8 mph 20.7 mph N/A   Clear
3:35 PM 54.9 °F - 17.4 °F 23% 29.77 in 10.0 mi West 13.8 mph - N/A   Clear
3:55 PM 55.0 °F - 17.8 °F 23% 29.77 in 10.0 mi West 11.5 mph - N/A   Clear
4:15 PM 54.9 °F - 17.6 °F 23% 29.76 in 10.0 mi West 15.0 mph 18.4 mph N/A   Clear
4:35 PM 53.2 °F - 18.0 °F 25% 29.76 in 10.0 mi West 11.5 mph 19.6 mph N/A   Clear
4:55 PM 53.4 °F - 19.8 °F 27% 29.77 in 10.0 mi West 10.4 mph - N/A   Clear
5:15 PM 52.7 °F - 20.3 °F 28% 29.77 in 10.0 mi West 11.5 mph - N/A   Clear
5:35 PM 51.3 °F - 20.3 °F 30% 29.77 in 10.0 mi West 9.2 mph - N/A   Clear
5:55 PM 48.7 °F - 21.4 °F 34% 29.77 in 10.0 mi West 8.1 mph - N/A   Clear
6:15 PM 44.8 °F 40.4 °F 22.3 °F 41% 29.77 in 10.0 mi West 8.1 mph - N/A   Clear
6:35 PM 44.2 °F 40.3 °F 22.5 °F 42% 29.78 in 10.0 mi WSW 6.9 mph - N/A   Clear
6:55 PM 44.1 °F 40.1 °F 23.5 °F 44% 29.78 in 10.0 mi WSW 6.9 mph - N/A   Scattered Clouds
7:15 PM 43.9 °F 39.3 °F 23.0 °F 44% 29.78 in 10.0 mi WSW 8.1 mph - N/A   Scattered Clouds
7:35 PM 42.6 °F 38.4 °F 23.0 °F 46% 29.78 in 10.0 mi West 6.9 mph - N/A   Scattered Clouds
7:55 PM 42.4 °F 37.5 °F 22.8 °F 46% 29.79 in 10.0 mi West 8.1 mph - N/A   Clear
8:15 PM 43.5 °F 37.9 °F 23.7 °F 46% 29.79 in 10.0 mi West 10.4 mph - N/A   Clear
8:35 PM 42.1 °F 36.6 °F 23.9 °F 49% 29.79 in 10.0 mi West 9.2 mph - N/A   Clear
8:55 PM 41.0 °F 35.8 °F 24.1 °F 51% 29.79 in 10.0 mi West 8.1 mph - N/A   Clear
9:15 PM 39.7 °F 33.7 °F 24.3 °F 54% 29.79 in 10.0 mi West 9.2 mph - N/A   Clear
9:35 PM 39.6 °F 33.0 °F 24.3 °F 54% 29.80 in 10.0 mi West 10.4 mph - N/A   Clear
9:55 PM 38.7 °F 32.4 °F 24.4 °F 57% 29.80 in 10.0 mi West 9.2 mph - N/A   Clear
10:15 PM 38.5 °F 32.1 °F 24.8 °F 58% 29.80 in 10.0 mi West 9.2 mph - N/A   Clear
10:35 PM 37.9 °F 32.7 °F 24.6 °F 59% 29.80 in 10.0 mi West 6.9 mph - N/A   Clear
10:55 PM 36.3 °F 30.8 °F 25.2 °F 64% 29.80 in 10.0 mi West 6.9 mph - N/A   Clear
11:15 PM 36.5 °F 31.0 °F 25.7 °F 65% 29.81 in 10.0 mi West 6.9 mph - N/A   Clear
11:35 PM 36.3 °F 29.5 °F 25.9 °F 66% 29.83 in 10.0 mi WNW 9.2 mph - N/A   Clear
11:55 PM 36.0 °F 30.3 °F 26.2 °F 68% 29.83 in 10.0 mi WNW 6.9 mph - N/A   Scattered Clouds